Location: Katherine
(14.4670°S, 132.2670°E)
Time: 00:50:27
(UTC+09:30)

ISS - Visible Passes

Search period start: 22 April 2018 00:00
Search period end: 02 May 2018 00:00
Orbit: 403 x 406 km, 51.6° (Epoch: 22 April)

Date Brightness Start Highest point End Pass type
(mag) Time Alt. Az. Time Alt. Az. Time Alt. Az.
22 Apr -2.8 06:18:56 10° WSW 06:21:51 30° NW 06:24:45 10° N visible
22 Apr -2.4 19:35:13 10° WNW 19:38:15 35° SW 19:40:22 17° S visible
23 Apr -4.0 05:29:38 86° SW 05:29:42 89° WNW 05:32:57 10° NE visible
24 Apr -0.8 19:29:13 10° WSW 19:30:17 11° SW 19:31:22 10° SSW visible
25 Apr -1.1 05:23:56 11° N 05:23:56 11° N 05:24:05 10° N visible
